Flag for Canada Weather past 2 weeks in Edmonton, Alberta, Canada

Now
75 °F

Clear.


Feels Like: 77 °F
Forecast: 61 / 83 °F
Wind: 7 mph from Southeast

Location: Edmonton Municipal

Current Time: Jul 31, 2014 at 12:30:46 AM

Latest Report: Jul 31, 2014 at 12:00 AM


Visibility: 9 mi

Pressure: 29.98 "Hg

Humidity: 74%

Dew point: 66 °F

Location of EdmontonLocation

Historic Weather in Edmonton — Graph

°F

Edmonton temperature yesterday

Maximum temperature yesterday: 88 °F (at 4:00 PM)
Minimum temperature yesterday: 63 °F (at 6:00 AM)
Average temperature yesterday: 77 °F

Past Weeks' High & Low Weather Summary

 TemperatureHumidityPressure
High88 °F (Jul 30, 4:00 PM)94% (Jul 25, 2:00 AM)30.23 "Hg (Jul 25, 2:00 AM)
Low50 °F (Jul 21, 5:00 AM)28% (Jul 24, 5:00 PM)29.48 "Hg (Jul 25, 7:54 AM)
Average66 °F68%29.89 "Hg
* Reported Jul 15 11:00 PM — Jul 30 11:00 PM, Edmonton, Weather by CustomWeather, © 2014

Note: Actual official high and low records may vary slightly from our data, if they occured in-between our weather recording intervals... More about our weather records

Advertising

Edmonton weather history for previous 24 hours

 ConditionsComfort  
Time TempWeatherWind HumidityBarometerVisibility
11:00 PM
Jul 30
77 °FClear.8 mph69%29.98 "Hg9 mi
10:00 PM75 °FSunny.5 mph69%30.01 "Hg9 mi
9:00 PM79 °FSunny.6 mph58%30.00 "Hg9 mi
8:00 PM84 °FSunny.10 mph55%29.98 "Hg9 mi
7:00 PM86 °FSunny.7 mph40%29.98 "Hg9 mi
6:00 PM88 °FSunny.8 mph38%29.98 "Hg9 mi
5:00 PM88 °FSunny.9 mph33%29.98 "Hg9 mi
4:00 PM88 °FSunny.9 mph46%29.99 "Hg9 mi
3:00 PM86 °FSunny.5 mph49%30.00 "Hg9 mi
2:00 PM86 °FSunny.7 mph49%30.00 "Hg9 mi
1:00 PM84 °FSunny.6 mph43%30.01 "Hg9 mi
12:00 PM82 °FSunny.3 mph51%30.01 "Hg9 mi
11:00 AM79 °FSunny.2 mph65%30.02 "Hg9 mi
10:00 AM75 °FSunny.2 mph74%30.03 "Hg9 mi
9:00 AM73 °FSunny.No wind78%30.03 "Hg9 mi
8:00 AM70 °FSunny.3 mph83%30.02 "Hg9 mi
7:00 AM64 °FSunny.No wind94%30.02 "Hg9 mi
6:00 AM63 °FClear.5 mph94%30.01 "Hg9 mi
5:00 AM68 °FClear.6 mph83%30.00 "Hg9 mi
4:00 AM68 °FClear.9 mph88%30.00 "Hg9 mi
3:00 AM70 °FClear.6 mph83%30.00 "Hg9 mi
2:00 AM72 °FClear.5 mph78%30.00 "Hg9 mi
1:00 AM72 °FClear.5 mph78%30.02 "Hg9 mi
12:00 AM75 °FClear.8 mph74%30.03 "Hg9 mi
Weather by CustomWeather, © 2014

See weather overviewHow to use our weather pages